TimeCST,TemperatureF,Dew PointF,Humidity,Sea Level PressureIn,VisibilityMPH,Wind Direction,Wind SpeedMPH,Gust SpeedMPH,PrecipitationIn,Events,Conditions,WindDirDegrees,DateUTC
12:15 AM,36.0,27.3,71,30.11,10.0,NNE,6.9,-,N/A,,Clear,30,2013-02-12 06:15:00
12:35 AM,37.0,27.5,68,30.11,10.0,NNE,6.9,-,N/A,,Clear,30,2013-02-12 06:35:00
12:55 AM,36.0,27.5,71,30.10,10.0,NNE,8.1,-,N/A,,Clear,20,2013-02-12 06:55:00
1:15 AM,36.5,27.3,69,30.09,10.0,NNE,9.2,-,N/A,,Clear,30,2013-02-12 07:15:00
1:35 AM,35.4,27.0,71,30.09,10.0,NNE,9.2,-,N/A,,Clear,30,2013-02-12 07:35:00
1:55 AM,34.9,26.6,72,30.07,10.0,NE,9.2,-,N/A,,Clear,40,2013-02-12 07:55:00
2:15 AM,33.8,26.6,75,30.06,10.0,NE,5.8,-,N/A,,Clear,50,2013-02-12 08:15:00
2:35 AM,32.5,26.6,79,30.08,10.0,North,5.8,-,N/A,,Clear,10,2013-02-12 08:35:00
3:15 AM,35.6,27.5,72,30.07,10.0,NNE,4.6,-,N/A,,Scattered Clouds,30,2013-02-12 09:15:00
3:35 AM,36.5,27.7,70,30.05,10.0,NNE,9.2,-,N/A,,Scattered Clouds,30,2013-02-12 09:35:00
3:55 AM,37.4,27.5,67,30.05,10.0,NNE,6.9,-,N/A,,Clear,20,2013-02-12 09:55:00
4:15 AM,36.5,28.2,72,30.06,10.0,NNE,5.8,-,N/A,,Clear,30,2013-02-12 10:15:00
4:35 AM,36.7,28.4,72,30.06,10.0,NNE,5.8,-,N/A,,Mostly Cloudy,30,2013-02-12 10:35:00
4:55 AM,37.6,28.2,69,30.07,10.0,North,6.9,-,N/A,,Overcast,10,2013-02-12 10:55:00
5:15 AM,38.7,28.2,66,30.06,10.0,North,6.9,-,N/A,,Overcast,10,2013-02-12 11:15:00
5:35 AM,38.7,28.0,66,30.07,10.0,North,3.5,-,N/A,,Overcast,350,2013-02-12 11:35:00
5:55 AM,38.7,28.0,66,30.07,10.0,North,6.9,-,N/A,,Overcast,10,2013-02-12 11:55:00
6:15 AM,38.5,27.7,65,30.07,10.0,North,9.2,-,N/A,,Mostly Cloudy,10,2013-02-12 12:15:00
6:35 AM,38.3,28.4,68,30.07,10.0,NNE,9.2,-,N/A,,Mostly Cloudy,20,2013-02-12 12:35:00
6:55 AM,38.1,28.6,69,30.06,10.0,NNE,10.4,-,N/A,,Overcast,30,2013-02-12 12:55:00
7:15 AM,37.4,28.9,71,30.03,10.0,NNE,12.7,-,N/A,,Overcast,30,2013-02-12 13:15:00
7:35 AM,36.9,29.1,74,30.03,10.0,NNE,9.2,-,N/A,,Mostly Cloudy,20,2013-02-12 13:35:00
7:55 AM,37.2,29.1,73,30.02,10.0,NNE,9.2,-,N/A,,Overcast,30,2013-02-12 13:55:00
8:15 AM,37.8,29.8,73,30.05,10.0,NE,4.6,-,N/A,,Overcast,50,2013-02-12 14:15:00
8:35 AM,38.3,29.5,71,30.04,10.0,North,6.9,-,N/A,,Overcast,10,2013-02-12 14:35:00
8:55 AM,39.2,30.7,72,30.03,10.0,NNE,12.7,-,N/A,Rain,Light Rain,20,2013-02-12 14:55:00
9:15 AM,40.1,30.0,67,30.03,10.0,NNE,9.2,23.0,N/A,,Overcast,30,2013-02-12 15:15:00
9:35 AM,40.1,30.7,69,30.05,10.0,NE,6.9,-,N/A,,Overcast,50,2013-02-12 15:35:00
9:55 AM,40.1,30.6,69,30.04,10.0,NNE,6.9,-,N/A,,Overcast,30,2013-02-12 15:55:00
10:15 AM,40.1,30.2,68,30.05,10.0,North,9.2,-,N/A,,Overcast,10,2013-02-12 16:15:00
10:35 AM,40.1,30.7,69,30.04,10.0,NNE,8.1,-,N/A,Rain,Light Rain,30,2013-02-12 16:35:00
10:55 AM,39.0,32.4,77,30.04,7.0,North,5.8,-,0.01,Rain,Rain,10,2013-02-12 16:55:00
11:15 AM,38.5,33.8,83,30.07,7.0,Calm,Calm,-,0.02,Rain,Rain,0,2013-02-12 17:15:00
11:35 AM,38.1,34.9,88,30.06,4.0,Calm,Calm,-,0.05,Rain,Rain,0,2013-02-12 17:35:00
11:55 AM,37.8,35.2,91,30.05,2.5,NNE,5.8,-,0.10,Rain,Rain,20,2013-02-12 17:55:00
12:15 PM,37.6,35.4,92,30.04,2.0,NE,6.9,-,0.06,Rain,Rain,50,2013-02-12 18:15:00
12:35 PM,38.3,36.0,91,30.04,5.0,ENE,6.9,-,0.08,Rain,Rain,60,2013-02-12 18:35:00
12:55 PM,38.3,36.5,93,30.02,7.0,NNE,6.9,-,0.09,Rain,Light Rain,30,2013-02-12 18:55:00
1:15 PM,38.5,36.7,93,30.00,5.0,NNE,8.1,-,0.01,Rain,Light Rain,30,2013-02-12 19:15:00
1:35 PM,39.0,36.9,92,29.99,7.0,NE,6.9,-,0.03,Rain,Light Rain,40,2013-02-12 19:35:00
1:55 PM,39.2,37.0,92,29.98,7.0,NE,4.6,-,0.04,Rain,Light Rain,40,2013-02-12 19:55:00
2:15 PM,39.4,37.8,94,29.97,10.0,NE,4.6,-,N/A,Rain,Light Rain,50,2013-02-12 20:15:00
2:35 PM,39.6,37.8,93,29.96,4.0,ENE,6.9,-,0.01,Rain,Rain,70,2013-02-12 20:35:00
2:55 PM,39.4,37.4,93,29.96,3.0,East,8.1,-,0.02,,Drizzle,80,2013-02-12 20:55:00
3:15 PM,39.4,37.9,95,29.96,3.0,NE,6.9,-,0.01,,Drizzle,50,2013-02-12 21:15:00
3:35 PM,39.4,37.8,94,29.95,5.0,NE,6.9,-,0.01,,Drizzle,50,2013-02-12 21:35:00
3:55 PM,39.4,38.1,95,29.95,5.0,NE,8.1,-,0.01,,Drizzle,40,2013-02-12 21:55:00
4:15 PM,39.2,37.9,95,29.95,4.0,NE,6.9,-,0.01,,Drizzle,50,2013-02-12 22:15:00
4:35 PM,39.2,37.9,95,29.95,4.0,NE,8.1,-,0.01,,Drizzle,40,2013-02-12 22:35:00
4:55 PM,39.0,37.9,96,29.95,4.0,NE,6.9,-,0.02,,Drizzle,40,2013-02-12 22:55:00
5:15 PM,38.8,37.8,96,29.96,5.0,NNE,5.8,-,N/A,,Drizzle,20,2013-02-12 23:15:00
5:35 PM,38.8,37.9,97,29.96,4.0,North,5.8,-,0.01,Rain,Light Rain,10,2013-02-12 23:35:00
5:55 PM,38.7,37.6,96,29.96,7.0,North,6.9,-,0.02,Rain,Light Rain,350,2013-02-12 23:55:00
6:15 PM,38.1,36.1,93,29.96,10.0,NNW,11.5,-,0.01,Rain,Rain,340,2013-02-13 00:15:00
6:35 PM,37.0,35.6,95,29.98,7.0,North,8.1,-,0.01,,Drizzle,350,2013-02-13 00:35:00
6:55 PM,36.5,35.1,95,29.98,7.0,North,10.4,-,0.01,Rain,Light Rain,350,2013-02-13 00:55:00
7:15 PM,36.5,35.1,95,29.99,5.0,NNW,8.1,-,0.01,Rain,Light Rain,340,2013-02-13 01:15:00
7:35 PM,36.0,34.7,95,30.00,7.0,North,6.9,-,0.01,,Drizzle,360,2013-02-13 01:35:00
8:15 PM,34.9,33.4,94,30.00,7.0,North,11.5,-,0.01,Rain,Light Rain,360,2013-02-13 02:15:00
8:35 PM,34.2,33.1,96,30.01,7.0,North,9.2,-,0.01,Rain,Light Rain,360,2013-02-13 02:35:00
8:55 PM,33.6,32.7,96,30.01,7.0,North,9.2,-,0.02,Snow,Light Snow,350,2013-02-13 02:55:00
9:15 PM,33.4,32.4,96,30.01,7.0,North,9.2,-,N/A,Rain,Light Rain,360,2013-02-13 03:15:00
9:35 PM,32.7,32.0,97,30.02,4.0,North,6.9,-,N/A,Rain,Light Rain,360,2013-02-13 03:35:00
9:55 PM,32.9,32.2,97,30.02,5.0,North,5.8,-,0.01,,Overcast,360,2013-02-13 03:55:00
10:15 PM,33.8,32.5,95,30.02,7.0,North,8.1,-,N/A,,Drizzle,350,2013-02-13 04:15:00
10:35 PM,33.8,32.7,96,30.02,10.0,North,5.8,-,N/A,,Drizzle,350,2013-02-13 04:35:00
10:55 PM,33.8,32.9,96,30.02,7.0,NNW,4.6,-,N/A,Rain,Rain,340,2013-02-13 04:55:00
11:15 PM,33.6,32.9,97,30.02,7.0,North,4.6,-,N/A,Rain,Light Rain,350,2013-02-13 05:15:00
11:35 PM,33.8,32.9,96,30.02,7.0,NNW,3.5,-,N/A,Rain,Rain,340,2013-02-13 05:35:00
11:55 PM,33.8,32.9,96,30.02,7.0,NW,3.5,-,N/A,Rain,Light Rain,320,2013-02-13 05:55:00